Terminal Aerodrome Forecast
Issued by NWS

Home | Current Version | Previous Version | Graphics & Text | Print | Product List | Glossary On
Versions: 1 2 3 4 5 6 7 8 9 10 11 12 13 14 15 16 17 18 19 20 21
504
FTUS43 KMPX 202339
TAFAXN
TAF
KAXN 202339Z 2100/2124 29015G23KT 2SM BR OVC003
     FM210200 28012G18KT P6SM SCT015 BKN040
     FM210400 28008KT P6SM SKC
     FM210600 23005KT 2SM BR SCT007
      TEMPO 2108/2112 1/2SM FG BKN002
     FM211400 19008KT P6SM SCT010 SCT050
     FM211800 24010KT P6SM SCT250=

USA.gov is the U.S. government's official web portal to all federal, state and local government web resources and services.